• In Hungary
  • List of Countries
  • For 7 days
  • Water Temperature
  • Satellite Maps
  • Weather Map
  • News
  • Weather Widgets
  • user-avatar
    Login

    Hourly Weather Stanislavove

    Today, 24 October, Tuesday

    Time Temperature Precipitation Wind Pressure Humidity
    00:00 +6°C° 0 mm 5 mps 744 mmHg 72%
    01:00 +6°C° 0 mm 5 mps 744 mmHg 71%
    02:00 +6°C° 0 mm 4 mps 744 mmHg 74%
    03:00 +5°C° 0.1 mm 4 mps 744 mmHg 73%
    04:00 +5°C° 0.1 mm 5 mps 744 mmHg 73%
    05:00 +3°C° 0.1 mm 6 mps 745 mmHg 72%
    06:00 +3°C° 0.1 mm 6 mps 745 mmHg 71%
    07:00 +3°C° 0.1 mm 6 mps 745 mmHg 69%
    08:00 +3°C° 0.1 mm 6 mps 745 mmHg 67%
    09:00 +4°C° 0 mm 6 mps 746 mmHg 64%
    10:00 +5°C° 0 mm 6 mps 746 mmHg 60%
    11:00 +5°C° 0 mm 6 mps 746 mmHg 56%
    12:00 +7°C° 0 mm 6 mps 747 mmHg 55%
    13:00 +7°C° 0 mm 6 mps 747 mmHg 54%
    14:00 +7°C° 0 mm 6 mps 747 mmHg 53%
    15:00 +7°C° 0 mm 6 mps 747 mmHg 54%
    16:00 +5°C° 0 mm 6 mps 748 mmHg 55%
    17:00 +5°C° 0 mm 6 mps 748 mmHg 55%
    18:00 +5°C° 0.1 mm 6 mps 748 mmHg 56%
    19:00 +4°C° 0.1 mm 6 mps 749 mmHg 57%
    20:00 +4°C° 0.1 mm 6 mps 749 mmHg 58%
    21:00 +5°C° 0 mm 5 mps 749 mmHg 59%
    22:00 +3°C° 0 mm 5 mps 750 mmHg 60%
    23:00 +3°C° 0 mm 5 mps 750 mmHg 61%

    Tomorrow, 25 October, Wednesday

    Time Temperature Precipitation Wind Pressure Humidity
    00:00 +3°C° 0 mm 4 mps 750 mmHg 62%
    01:00 +3°C° 0 mm 4 mps 750 mmHg 64%
    02:00 +1°C° 0 mm 4 mps 751 mmHg 66%
    03:00 +1°C° 0 mm 4 mps 751 mmHg 67%
    04:00 +1°C° 0 mm 4 mps 751 mmHg 68%
    05:00 0°C° 0 mm 4 mps 751 mmHg 69%
    06:00 0°C° 0 mm 4 mps 751 mmHg 67%
    07:00 +1°C° 0 mm 5 mps 752 mmHg 66%
    08:00 +1°C° 0 mm 5 mps 752 mmHg 65%
    09:00 +2°C° 0 mm 5 mps 752 mmHg 60%
    10:00 +5°C° 0 mm 5 mps 752 mmHg 55%
    11:00 +6°C° 0 mm 5 mps 753 mmHg 50%
    12:00 +7°C° 0 mm 5 mps 753 mmHg 47%
    13:00 +7°C° 0 mm 4 mps 752 mmHg 45%
    14:00 +8°C° 0 mm 4 mps 752 mmHg 43%
    15:00 +8°C° 0 mm 3 mps 752 mmHg 46%
    16:00 +7°C° 0 mm 3 mps 752 mmHg 49%
    17:00 +6°C° 0 mm 2 mps 752 mmHg 52%
    18:00 +5°C° 0 mm 2 mps 753 mmHg 54%
    19:00 +5°C° 0 mm 2 mps 753 mmHg 57%
    20:00 +4°C° 0 mm 2 mps 753 mmHg 59%
    21:00 +4°C° 0 mm 2 mps 753 mmHg 61%
    22:00 +3°C° 0 mm 2 mps 753 mmHg 62%
    23:00 +4°C° 0 mm 1 mps 753 mmHg 64%

    Day after tomorrow, 26 October, Thursday

    Time Temperature Precipitation Wind Pressure Humidity
    00:00 +3°C° 0 mm 2 mps 753 mmHg 65%
    01:00 +3°C° 0 mm 2 mps 752 mmHg 67%
    02:00 +3°C° 0 mm 2 mps 752 mmHg 68%
    03:00 +3°C° 0 mm 2 mps 752 mmHg 67%
    04:00 +3°C° 0 mm 2 mps 751 mmHg 66%
    05:00 +4°C° 0 mm 2 mps 751 mmHg 65%
    06:00 +3°C° 0 mm 3 mps 751 mmHg 64%
    07:00 +4°C° 0 mm 4 mps 751 mmHg 63%
    08:00 +4°C° 0 mm 4 mps 751 mmHg 62%
    09:00 +5°C° 0 mm 5 mps 751 mmHg 60%
    10:00 +6°C° 0 mm 5 mps 750 mmHg 58%
    11:00 +7°C° 0 mm 5 mps 750 mmHg 56%
    12:00 +8°C° 0 mm 5 mps 750 mmHg 58%
    13:00 +8°C° 0 mm 5 mps 749 mmHg 60%
    14:00 +8°C° 0 mm 5 mps 749 mmHg 63%
    15:00 +8°C° 0 mm 4 mps 749 mmHg 67%
    16:00 +9°C° 0 mm 3 mps 748 mmHg 71%
    17:00 +9°C° 0 mm 3 mps 748 mmHg 75%
    18:00 +9°C° 0 mm 3 mps 748 mmHg 77%
    19:00 +9°C° 0 mm 3 mps 748 mmHg 79%
    20:00 +8°C° 0 mm 4 mps 748 mmHg 81%
    21:00 +9°C° 0 mm 3 mps 748 mmHg 83%
    22:00 +8°C° 0 mm 3 mps 748 mmHg 85%
    23:00 +8°C° 0 mm 3 mps 748 mmHg 87%

    27 October, Friday

    Time Temperature Precipitation Wind Pressure Humidity
    00:00 +8°C° 0 mm 3 mps 747 mmHg 89%
    01:00 +8°C° 0 mm 3 mps 747 mmHg 91%
    02:00 +7°C° 0 mm 3 mps 747 mmHg 92%
    03:00 +7°C° 0 mm 3 mps 746 mmHg 93%
    04:00 +7°C° 0 mm 3 mps 746 mmHg 93%
    05:00 +7°C° 0 mm 3 mps 746 mmHg 93%
    06:00 +8°C° 0 mm 3 mps 745 mmHg 90%
    07:00 +8°C° 0 mm 3 mps 745 mmHg 88%
    08:00 +7°C° 0 mm 4 mps 745 mmHg 85%
    09:00 +10°C° 0 mm 4 mps 744 mmHg 79%
    10:00 +12°C° 0 mm 4 mps 744 mmHg 72%
    11:00 +13°C° 0 mm 5 mps 744 mmHg 66%
    12:00 +14°C° 0.1 mm 5 mps 743 mmHg 64%
    13:00 +14°C° 0.1 mm 5 mps 743 mmHg 63%
    14:00 +15°C° 0.1 mm 5 mps 742 mmHg 61%
    15:00 +14°C° 0.4 mm 4 mps 741 mmHg 67%
    16:00 +13°C° 0.4 mm 3 mps 741 mmHg 72%
    17:00 +13°C° 0.4 mm 2 mps 740 mmHg 77%
    18:00 +12°C° 0.4 mm 2 mps 740 mmHg 80%
    19:00 +12°C° 0.4 mm 1 mps 739 mmHg 83%
    20:00 +12°C° 0.4 mm 1 mps 739 mmHg 85%
    21:00 +11°C° 0.7 mm 1 mps 738 mmHg 86%
    22:00 +11°C° 0.7 mm 1 mps 737 mmHg 86%
    23:00 +10°C° 0.7 mm 2 mps 736 mmHg 87%

    28 October, Saturday

    Time Temperature Precipitation Wind Pressure Humidity
    00:00 +10°C° 0.3 mm 2 mps 736 mmHg 87%
    01:00 +10°C° 0.3 mm 2 mps 735 mmHg 87%
    02:00 +10°C° 0.3 mm 3 mps 734 mmHg 87%
    03:00 +10°C° 1.5 mm 3 mps 734 mmHg 87%
    04:00 +8°C° 1.5 mm 4 mps 734 mmHg 88%
    05:00 +8°C° 1.5 mm 4 mps 733 mmHg 89%
    06:00 +8°C° 0.3 mm 5 mps 733 mmHg 87%
    07:00 +8°C° 0.3 mm 6 mps 733 mmHg 86%
    08:00 +8°C° 0.3 mm 6 mps 733 mmHg 85%
    09:00 +8°C° 0.1 mm 7 mps 734 mmHg 81%
    10:00 +8°C° 0.1 mm 7 mps 734 mmHg 77%
    11:00 +9°C° 0.1 mm 7 mps 734 mmHg 73%
    12:00 +9°C° 0.1 mm 7 mps 735 mmHg 71%
    13:00 +9°C° 0.1 mm 7 mps 735 mmHg 68%
    14:00 +9°C° 0.1 mm 7 mps 735 mmHg 66%
    15:00 +9°C° 0 mm 6 mps 735 mmHg 68%
    16:00 +8°C° 0 mm 5 mps 735 mmHg 70%
    17:00 +8°C° 0 mm 3 mps 735 mmHg 72%
    18:00 +8°C° 0 mm 3 mps 735 mmHg 74%
    19:00 +8°C° 0 mm 3 mps 735 mmHg 77%
    20:00 +6°C° 0 mm 4 mps 736 mmHg 79%
    21:00 +6°C° 0 mm 4 mps 736 mmHg 81%
    22:00 +5°C° 0 mm 4 mps 736 mmHg 83%
    23:00 +5°C° 0 mm 4 mps 736 mmHg 84%

    29 October, Sunday

    Time Temperature Precipitation Wind Pressure Humidity
    00:00 +4°C° 0 mm 3 mps 737 mmHg 85%
    01:00 +4°C° 0 mm 3 mps 737 mmHg 85%
    02:00 +3°C° 0 mm 3 mps 737 mmHg 86%
    03:00 +3°C° 0 mm 3 mps 737 mmHg 87%
    04:00 +3°C° 0 mm 3 mps 737 mmHg 87%
    05:00 +2°C° 0 mm 3 mps 737 mmHg 88%
    06:00 +3°C° 0 mm 3 mps 737 mmHg 86%
    07:00 +3°C° 0 mm 3 mps 738 mmHg 85%
    08:00 +4°C° 0 mm 3 mps 738 mmHg 83%
    09:00 +5°C° 0 mm 4 mps 738 mmHg 75%
    10:00 +7°C° 0 mm 4 mps 738 mmHg 66%
    11:00 +8°C° 0 mm 4 mps 738 mmHg 58%
    12:00 +10°C° 0 mm 4 mps 738 mmHg 54%
    13:00 +11°C° 0 mm 4 mps 738 mmHg 51%
    14:00 +12°C° 0 mm 5 mps 737 mmHg 48%
    15:00 +11°C° 0 mm 4 mps 737 mmHg 51%
    16:00 +10°C° 0 mm 4 mps 737 mmHg 54%
    17:00 +9°C° 0 mm 3 mps 737 mmHg 58%
    18:00 +8°C° 0 mm 4 mps 737 mmHg 59%
    19:00 +8°C° 0 mm 4 mps 738 mmHg 61%
    20:00 +8°C° 0 mm 5 mps 738 mmHg 63%
    21:00 +8°C° 0.1 mm 5 mps 738 mmHg 64%
    22:00 +8°C° 0.1 mm 5 mps 738 mmHg 66%
    23:00 +7°C° 0.1 mm 5 mps 738 mmHg 68%

    30 October, Monday

    Time Temperature Precipitation Wind Pressure Humidity
    00:00 +7°C° 0 mm 4 mps 738 mmHg 70%
    01:00 +8°C° 0 mm 3 mps 738 mmHg 72%
    02:00 +7°C° 0 mm 3 mps 738 mmHg 74%
    03:00 +7°C° 0 mm 3 mps 738 mmHg 77%
    04:00 +7°C° 0 mm 3 mps 738 mmHg 80%
    05:00 +6°C° 0 mm 2 mps 737 mmHg 83%
    06:00 +7°C° 0 mm 3 mps 738 mmHg 84%
    07:00 +7°C° 0 mm 3 mps 738 mmHg 84%
    08:00 +7°C° 0 mm 3 mps 738 mmHg 85%
    09:00 +8°C° 0 mm 3 mps 738 mmHg 79%
    10:00 +9°C° 0 mm 3 mps 738 mmHg 74%
    11:00 +10°C° 0 mm 3 mps 738 mmHg 68%
    12:00 +11°C° 0.2 mm 3 mps 738 mmHg 67%
    13:00 +11°C° 0.2 mm 3 mps 738 mmHg 65%
    14:00 +11°C° 0.2 mm 3 mps 738 mmHg 64%
    15:00 +10°C° 0.1 mm 3 mps 738 mmHg 67%
    16:00 +9°C° 0.1 mm 2 mps 738 mmHg 71%
    17:00 +9°C° 0.1 mm 2 mps 738 mmHg 74%
    18:00 +8°C° 0.1 mm 2 mps 739 mmHg 76%
    19:00 +8°C° 0.1 mm 3 mps 739 mmHg 79%
    20:00 +7°C° 0.1 mm 3 mps 739 mmHg 81%
    21:00 +6°C° 0.1 mm 4 mps 739 mmHg 80%
    22:00 +5°C° 0.1 mm 4 mps 739 mmHg 79%
    23:00 +5°C° 0.1 mm 5 mps 739 mmHg 79%
    Show more